Molokai, HI

5:03 PM HST on November 21, 2017 (GMT -1000)
Molokai

Weather History for PHMK - December, 2012

Change the Weather History Date:

Thursday, December 13, 2012

  Actual Average Record
Temperature  
Mean Temperature 74 °F -  
Max Temperature 80 °F 79 °F 85 °F (1977)
Min Temperature 69 °F 66 °F 54 °F (2004)
Cooling Degree Days 10    
Growing Degree Days 24 (Base 50)    
Moisture  
Dew Point 62 °F    
Average Humidity 68    
Maximum Humidity 83    
Minimum Humidity 48    
Precipitation  
Precipitation 0.00 in - - ()
Sea Level Pressure  
Sea Level Pressure 30.13 in    
Wind  
Wind Speed 17 mph (NE)    
Max Wind Speed 28 mph    
Max Gust Speed 38 mph    
Visibility 10 miles    
Events Rain    
Averages and records for this station are not official NWS values.
T = Trace of Precipitation, MM = Missing Value Source: NWS Daily Summary

Daily Weather History Graph

Daily Weather History Graph

Search for Another Location

Airport or City:

Trip Planner

Search our weather history database for the weather conditions in past years. The results will help you decide how hot, cold, wet, or windy it might be!

Date:

Astronomy

Dec. 13, 2012 Rise Set
Actual Time 6:57 AM HST 5:48 PM HST
Civil Twilight 6:32 AM HST 6:13 PM HST
Nautical Twilight 6:05 AM HST 6:40 PM HST
Astronomical Twilight 5:37 AM HST 7:08 PM HST
Moon 7:19 AM HST (12/13) 6:40 PM HST (12/13)
Length of Visible Light 11h 40m
Length of Day
10h 51m
New Moon, 0% of the Moon is Illuminated
Dec 13
New Moon
Dec 19
First Quarter
Dec 28
Full
Jan 4
Last Quarter
Jan 11
New

Hourly Weather History & Observations

Time (HST) Temp. Heat Index Dew Point Humidity Pressure Visibility Wind Dir Wind Speed Gust Speed Precip Events Conditions
12:54 AM 72.0 °F - 63.0 °F 73% 30.13 in 10.0 mi NE 13.8 mph 24.2 mph N/A   Scattered Clouds
1:54 AM 72.0 °F - 63.0 °F 73% 30.13 in 10.0 mi NE 13.8 mph 27.6 mph N/A   Mostly Cloudy
2:54 AM 73.0 °F - 61.0 °F 66% 30.12 in 10.0 mi ENE 13.8 mph 28.8 mph N/A   Scattered Clouds
3:54 AM 71.1 °F - 63.0 °F 75% 30.13 in 10.0 mi NE 10.4 mph 23.0 mph N/A   Partly Cloudy
4:54 AM 72.0 °F - 60.1 °F 66% 30.13 in 10.0 mi NE 20.7 mph 29.9 mph N/A   Clear
5:54 AM 71.1 °F - 64.0 °F 78% 30.13 in 9.0 mi NE 17.3 mph 29.9 mph 0.00 in Rain Light Rain
6:54 AM 70.0 °F - 64.0 °F 81% 30.13 in 10.0 mi NE 15.0 mph 31.1 mph 0.00 in   Mostly Cloudy
7:54 AM 70.0 °F - 64.0 °F 81% 30.15 in 8.0 mi NE 19.6 mph 36.8 mph 0.00 in Rain Light Rain
8:01 AM 69.8 °F - 64.4 °F 83% 30.13 in 10.0 mi ENE 16.1 mph 27.6 mph 0.00 in   Scattered Clouds
8:54 AM 73.0 °F - 63.0 °F 71% 30.16 in 10.0 mi NE 18.4 mph 25.3 mph 0.00 in   Mostly Cloudy
9:54 AM 75.0 °F - 61.0 °F 62% 30.15 in 10.0 mi ENE 25.3 mph 36.8 mph 0.00 in   Mostly Cloudy
10:54 AM 73.9 °F - 62.1 °F 66% 30.14 in 10.0 mi ENE 21.9 mph 38.0 mph 0.00 in   Mostly Cloudy
11:54 AM 78.1 °F - 62.1 °F 58% 30.10 in 10.0 mi NE 23.0 mph 32.2 mph N/A   Clear
12:54 PM 80.1 °F 80.9 °F 60.1 °F 50% 30.09 in 10.0 mi ENE 27.6 mph 38.0 mph N/A   Clear
2:54 PM 79.0 °F - 57.9 °F 48% 30.06 in 10.0 mi NNE 16.1 mph 24.2 mph N/A   Clear
3:54 PM 78.1 °F - 59.0 °F 52% 30.07 in 10.0 mi NNE 12.7 mph 23.0 mph N/A   Clear
4:54 PM 75.9 °F - 61.0 °F 60% 30.08 in 10.0 mi NE 17.3 mph 28.8 mph N/A   Partly Cloudy
5:54 PM 73.9 °F - 61.0 °F 64% 30.11 in 10.0 mi NE 17.3 mph 26.5 mph N/A   Clear
6:54 PM 73.9 °F - 59.0 °F 59% 30.12 in 10.0 mi NE 21.9 mph 28.8 mph N/A   Clear
7:54 PM 73.9 °F - 60.1 °F 62% 30.14 in 10.0 mi NE 18.4 mph 24.2 mph N/A   Clear
8:54 PM 73.0 °F - 63.0 °F 71% 30.16 in 10.0 mi NE 13.8 mph 23.0 mph 0.00 in   Mostly Cloudy
9:54 PM 73.9 °F - 64.0 °F 71% 30.16 in 10.0 mi NE 16.1 mph 33.4 mph N/A   Overcast
10:54 PM 73.0 °F - 64.0 °F 73% 30.17 in 10.0 mi NE 18.4 mph 28.8 mph 0.00 in   Overcast
11:13 PM 71.6 °F - 64.4 °F 78% 30.15 in 10.0 mi NE 24.2 mph 38.0 mph N/A   Overcast
11:41 PM 71.6 °F - 64.4 °F 78% 30.15 in 10.0 mi NE 20.7 mph 33.4 mph 0.00 in Rain Light Rain
11:54 PM 72.0 °F - 64.9 °F 78% 30.15 in 10.0 mi NE 16.1 mph 27.6 mph 0.00 in Rain Light Rain